Погода в Пикалево

Россия / Санкт-Петербург и Ленинградская область     59°30′47″N   34°10′38″E
темп.,
°C
ветер,
м/с
пор.,
м/с
влажн.,
%
обл.,
%
осадки,
мм/ч
давл.,
гПа
погр.,
м
6 августа, пт
пт600:00+11св3898100 5.8 1015277
03:00+12всв41198100 11.9 1014604
06:00+11св41197100 3.9 1013803
09:00+11всв3998100 4.5 1013540
12:00+12всв3798100 0.1 1014416
15:00+13всв4996100 0.1 1013422
18:00+14всв4990100 0.0 1013461
21:00+13в41093100 0.0 1013455
7 августа, сб
сб700:00+12в41298100 0.0 1013401
03:00+13в41196100 0.0 1012480
06:00+13в51196100 0.1 1011511
09:00+14в51499100 1.8 1010676
12:00+15в61498100 6.6 1010808
15:00+15в61398100 13.6 1009887
18:00+15вюв51398100 0.3 1009702
21:00+16вюв41199100 0.3 1009458
8 августа, вс
вс800:00+16вюв41198100 0.0 1009531
03:00+16вюв3799100 0.6 1009328
06:00+16ю1599100 0.2 1009256
09:00+18юз24815 0.2 1011432
12:00+20юз346594 0.1 10111180
15:00+20юз346372 0.1 10131134
18:00+19зюз258112 0.6 1013502
21:00+15зюз119354 0.7 101522
9 августа, пн
пн900:00+14юз2293100 0.0 101643
03:00+13ю2297100 0.0 101632
06:00+14ююв239495 0.0 101675
09:00+20ююв34685 0.0 1016452
12:00+24ююв355111 0.0 10161271
15:00+25ю365388 0.0 10151343
18:00+22юз377793 0.5 1015309
21:00+18юз2295100 0.9 101726
10 августа, вт
вт1000:00+16зюз2597100 0.0 1017107
03:00+15зюз2698100 0.0 1018137
06:00+15зюз239795 0.0 101984
09:00+20зюз13741 0.0 1019459
12:00+24юз234817 0.0 10181732
15:00+26зюз234034 0.0 10182293
18:00+25з124895 0.0 1017597
21:00+18ссв227322 0.0 101717